Regional Weather Roundup
Issued by NWS

Home | Current Version | Previous Version | Graphics & Text | Print | Product List | Glossary On
Versions: 1 2 3 4 5 6 7 8 9 10 11 12 13 14 15 16 17 18 19 20 21 22 23 24 25 26 27 28 29 30 31 32 33 34 35 36 37 38 39 40 41 42 43 44 45 46 47 48 49 50
363
ASUS44 KJAN 210403
RWRMS

MISSISSIPPI HOURLY WEATHER ROUNDUP
NATIONAL WEATHER SERVICE JACKSON MS
1000 PM CST SAT DEC 20 2014

NOTE: "FAIR: INDICATES FEW OR NO CLOUDS BELOW 12,000 FEET WITH NO
SIGNIFICANT WEATHER AND/OR OBSTRUCTIONS TO VISIBILITY.

MSZ001>002-007>008-010>013-018>021-025>028-034>036-210500-
NORTHWEST MISSISSIPPI

CITY           SKY/WX    TMP DP  RH WIND       PRES   REMARKS
CLARKSDALE     FAIR      37  37 100 N6        30.26R WCI  33
CLEVELAND      FAIR      40  38  93 N7        30.24R WCI  35
GREENWOOD      CLEAR     35  33  92 CALM      30.22S
GREENVILLE     CLEAR     39  36  89 N7        30.23R WCI  34
GRENADA        FAIR      32  32 100 CALM      30.23S
OLIVE BRANCH   CLEAR     37  36  93 NE5       30.26R WCI  34
OXFORD         FAIR      32  32 100 CALM      30.25R
TUNICA         PTCLDY    36  34  93 N6        30.27R WCI  31
$$

MSZ003>006-009-014>017-022>024-029>033-037>039-210500-
NORTHEAST MISSISSIPPI

CITY           SKY/WX    TMP DP  RH WIND       PRES   REMARKS
COLUMBUS AFB   CLEAR     36  34  94 NE3       30.22R
CORINTH        FAIR      37  30  75 CALM      30.25R
GOLDN TRIANGLE CLEAR     39  34  81 NE3       30.21R
STARKVILLE     FAIR      36  34  93 CALM      30.22R
TUPELO         CLEAR     35  30  82 NE10      30.24R WCI  27
$$

MSZ040-058-210500-
CENTRAL MISSISSIPPI

CITY           SKY/WX    TMP DP  RH WIND       PRES   REMARKS
JACKSON INTL   CLEAR     42  39  89 NE5       30.20R
JACKSON HAWKNS CLEAR     45  39  79 NE3       30.20R
MERIDIAN KEY   PTCLDY    38  37  97 CALM      30.20R
MERIDIAN NAS   PTCLDY    37  36  96 NW3       30.20S
RAYMOND        FAIR      39  34  81 CALM      30.20R HAZE
VICKSBURG      CLEAR     44  39  82 N7        30.21R
$$

MSZ059>079-210500-
SOUTH MISSISSIPPI

CITY           SKY/WX    TMP DP  RH WIND       PRES   REMARKS
HATTIESBURG    MOCLDY    49  44  83 CALM      30.19R
MCCOMB         MOCLDY    44  42  93 CALM      30.17S
NATCHEZ        PTCLDY    43  39  87 CALM      30.19S
PINE BELT      MOCLDY    46  41  81 N6        30.18R
$$

MSZ080>082-210500-
COASTAL MISSISSIPPI

CITY           SKY/WX    TMP DP  RH WIND       PRES   REMARKS
BILOXI         CLOUDY    51  48  90 NE13      30.14S
PASCAGOULA     CLOUDY    51  48  89 NE5       30.16R
GULFPORT       CLOUDY    51  46  83 NE12      30.14S
$$



USA.gov is the U.S. government's official web portal to all federal, state and local government web resources and services.